Temperature
18 18 18 18 18 18 18 18 18 18 18 18 18 18 18 18 18 18 18 18 18 18 18 17 17 17 17 17 17 17 17 17 17 17 17 17 17 17 17 16 16 16 16
18 18 18 18 18 18 18 18 18 18 18 18 18 17 17 18 18 17 18 18 18 18 18 17 17 17 17 17 17 17 17 17 17 17 16 16 16 16 16 16 16 16 16
18 18 18 18 18 18 18 18 18 18 18 18 18 17 17 17 18 17 17 17 18 18 18 17 17 17 17 17 17 17 17 17 17 16 16 16 16 16 16 16 16 16 16
18 18 18 18 18 18 18 18 18 18 18 18 18 17 18 18 17 17 17 17 17 17 18 18 17 17 17 17 17 17 17 17 17 17 16 16 16 16 16 16 16 16 16
18 18 18 18 18 18 18 18 18 18 18 18 18 18 18 18 18 17 17 17 17 17 17 17 17 17 17 17 17 17 17 17 17 17 17 16 16 16 16 16 16 16 16
18 18 18 18 18 18 18 18 18 18 17 17 18 18 18 18 18 17 17 17 17 17 17 17 17 17 17 17 17 17 17 17 17 17 17 16 16 16 16 16 16 16 16
18 18 18 18 18 18 18 18 18 17 17 17 17 18 18 18 18 17 17 17 17 17 17 17 17 16 17 17 17 17 17 17 17 17 17 17 16 16 16 16 16 16 16
18 18 18 18 18 18 18 18 17 17 17 17 17 18 18 18 18 18 17 17 17 17 17 17 17 17 16 16 17 17 17 17 17 17 16 16 16 16 16 16 16 16 16
18 18 18 18 18 18 18 17 17 17 17 17 17 18 18 19 18 18 17 17 17 17 17 17 17 17 16 16 16 17 17 17 17 16 16 16 16 16 16 16 16 16 16
18 18 18 18 18 17 17 17 17 17 17 17 17 17 17 18 18 18 17 17 17 17 17 17 16 16 16 16 16 16 16 16 16 16 16 16 16 16 16 16 16 16 16
18 18 18 18 17 17 17 17 17 17 17 17 17 17 17 17 17 18 18 17 17 17 17 16 16 16 16 16 16 16 16 16 16 16 16 16 16 16 16 16 16 16 16
18 18 18 18 17 17 17 17 17 17 17 17 17 17 17 17 17 17 17 17 17 17 16 16 16 16 16 16 16 16 16 16 16 16 16 16 16 16 16 16 16 16 15
18 18 17 17 17 17 17 17 17 17 17 17 17 17 17 17 17 17 17 17 17 17 16 16 16 16 16 16 16 16 16 16 16 16 16 16 16 16 16 16 16 15 15
18 17 17 17 17 17 17 17 17 17 17 17 16 17 16 16 16 16 17 16 17 17 17 16 16 16 15 15 15 15 15 16 16 16 16 16 16 16 16 15 15 15 15
17 17 17 17 17 17 17 17 17 17 17 16 16 16 16 16 16 16 16 16 17 17 17 16 16 15 15 15 15 15 15 15 15 15 15 16 16 15 15 15 15 15 15
17 17 17 17 17 17 17 17 16 16 16 16 16 16 16 16 16 16 16 16 16 16 17 16 15 15 15 15 15 15 15 15 15 15 15 15 15 15 15 15 15 15 15
17 17 17 17 17 17 17 17 16 16 16 16 15 15 15 15 15 15 15 15 15 16 16 16 15 15 14 14 15 14 14 14 15 15 15 15 15 15 15 15 15 14 14
17 17 17 17 17 16 16 16 16 16 16 15 15 15 15 15 15 15 15 15 15 15 15 15 15 14 14 14 14 14 14 14 14 14 14 14 14 14 14 14 14 14 14
17 17 17 16 16 16 16 16 16 16 15 15 15 15 15 15 15 15 15 15 15 15 14 15 15 14 14 14 14 14 14 14 14 14 14 14 14 14 14 14 14 14 14
17 16 16 16 16 16 16 16 16 15 15 15 15 15 15 14 14 14 14 14 14 14 14 14 14 14 14 13 13 14 14 14 14 14 14 13 14 14 13 14 14 14 13
16 16 16 16 16 16 16 16 15 15 15 15 15 14 14 14 14 14 14 14 14 14 14 14 14 14 14 13 13 14 14 14 13 13 13 13 13 13 13 13 13 13 13
16 16 16 15 15 15 15 16 15 15 15 14 14 14 14 14 14 14 14 14 14 13 14 14 14 14 13 13 13 13 13 13 13 13 13 13 13 13 13 13 13 13 13
16 16 15 15 15 15 15 15 15 15 14 14 14 14 14 14 14 14 14 14 13 13 13 13 13 13 13 13 12 13 13 13 13 13 13 13 13 13 13 12 13 12 12
15 15 15 15 15 15 15 15 15 14 14 14 14 14 14 14 14 13 13 13 13 13 13 13 12 12 12 12 12 12 12 12 12 12 12 13 13 13 13 12 12 12 12
15 15 15 15 15 15 15 15 15 14 14 14 14 14 14 13 14 14 13 13 13 13 13 13 13 12 12 12 12 12 12 12 13 13 12 12 13 13 12 12 12 12 12
15 15 15 15 15 15 15 15 15 14 14 14 14 14 14 14 13 13 13 13 13 12 12 12 12 12 12 12 12 12 12 12 13 13 12 12 12 12 13 12 12 12 12
Wind_Speed
1 1 1 1 0 1 2 2 1 2 2 2 2 2 2 2 2 1 4 8 8 8 8 8 9 9 9 10 10 10 10 10 10 10 10 9 9 10 11 11 11 11 11
1 1 1 0 0 0 1 1 1 2 2 2 1 1 1 1 2 2 3 6 9 8 7 7 8 8 9 9 10 10 9 9 10 10 10 9 10 10 10 11 11 11 12
1 0 0 0 1 1 1 1 1 1 2 2 2 1 1 1 1 2 3 3 5 9 8 7 7 8 9 9 9 9 9 9 9 9 9 10 10 10 10 10 10 11 11
1 1 0 0 0 0 1 1 1 1 1 1 1 0 1 1 2 2 3 3 3 3 7 8 7 8 8 8 9 9 9 9 9 9 9 10 10 11 11 11 11 11 11
1 1 0 0 1 0 0 1 1 0 1 0 0 1 1 1 2 2 2 3 3 2 2 7 7 7 7 7 7 8 8 9 9 9 10 10 11 11 11 11 11 11 11
1 1 1 0 1 0 0 0 1 0 1 1 1 0 1 1 1 1 2 2 2 2 2 2 5 6 8 7 7 7 8 8 9 9 10 10 10 11 11 11 11 11 12
2 1 1 1 1 1 1 1 1 2 1 0 1 1 1 2 1 2 1 1 2 2 2 2 3 2 5 8 8 7 7 7 8 8 8 8 9 9 11 11 12 12 13
2 2 1 1 1 1 1 1 1 1 1 1 2 2 1 2 2 2 2 2 1 2 2 2 2 2 2 3 4 6 6 7 7 8 8 8 9 9 10 11 11 11 12
2 1 1 1 1 2 1 1 2 2 2 1 1 2 2 1 1 2 2 1 1 1 1 2 3 3 3 2 2 4 5 5 6 7 7 7 8 8 9 10 10 10 10
2 2 2 2 2 1 1 2 1 2 2 2 1 2 2 2 2 1 2 2 2 1 1 1 1 2 2 2 1 1 2 3 5 6 7 7 7 8 9 10 10 10 10
3 2 2 2 2 2 2 1 1 2 2 2 2 2 1 2 3 3 2 1 2 2 2 2 1 1 1 1 1 1 0 2 3 4 5 6 6 7 8 9 10 10 10
3 3 3 2 2 2 2 2 2 2 2 2 2 2 2 2 2 2 3 3 2 1 1 1 1 1 1 0 1 3 1 1 1 2 3 4 5 6 7 7 8 9 10
2 2 2 3 2 2 2 2 2 1 1 2 2 2 2 2 2 3 3 3 3 2 1 2 1 1 1 1 1 2 2 1 0 1 2 2 3 3 4 4 6 7 8
2 2 3 3 2 2 2 2 2 1 1 2 1 1 2 2 2 3 3 3 3 3 2 2 1 1 0 1 1 1 1 2 0 0 1 1 2 2 3 3 3 4 5
2 2 3 2 2 2 2 2 1 1 1 1 2 2 2 1 2 2 2 3 4 4 3 2 2 1 0 1 1 1 0 2 1 0 0 1 0 1 1 1 2 3 3
2 2 2 2 2 2 2 3 2 1 2 2 1 1 2 2 1 2 2 3 3 4 4 1 1 0 1 1 1 1 1 2 2 2 0 1 1 1 0 0 1 2 3
4 3 3 3 3 3 3 3 3 2 3 2 2 2 2 2 2 2 2 3 3 3 4 2 1 0 1 2 1 2 2 2 2 3 1 1 1 1 1 1 1 1 2
3 4 4 3 3 3 3 3 3 3 3 3 3 3 3 2 2 2 2 3 2 2 4 3 2 1 1 2 2 3 2 2 1 4 3 2 3 3 3 2 1 1 1
3 3 4 4 4 3 3 3 3 3 3 3 3 3 3 3 3 2 3 2 3 2 2 3 3 1 2 2 2 3 2 2 3 4 5 5 5 4 4 3 3 2 2
4 3 4 4 4 4 4 4 4 4 4 4 3 3 3 3 3 3 3 2 2 2 2 3 3 2 2 2 3 3 3 2 3 1 1 2 5 6 5 4 3 2 2
4 4 3 4 4 4 4 4 4 5 4 4 4 3 3 2 1 2 2 2 2 3 3 3 3 3 2 2 3 3 3 3 2 1 2 2 3 3 4 6 4 3 3
3 3 4 3 4 4 2 2 4 4 5 5 5 5 4 4 4 3 2 2 3 4 4 4 4 3 3 3 3 4 3 3 3 1 3 3 2 2 2 2 4 3 3
4 4 4 4 4 3 4 4 5 5 5 5 5 5 5 4 5 5 5 6 4 3 4 5 5 5 4 4 4 5 3 4 4 3 3 4 2 3 2 3 7 5 4
4 4 5 5 4 4 5 6 6 7 6 6 6 6 6 5 5 5 5 5 5 5 5 5 4 5 4 4 5 6 6 5 5 3 3 4 3 3 2 2 8 7 5
4 4 5 5 5 5 5 7 7 6 6 7 7 7 7 6 3 4 6 7 6 5 5 5 4 4 4 5 6 5 5 5 5 3 2 4 3 3 3 2 6 10 9
4 5 4 5 6 6 5 7 8 6 6 6 6 6 6 7 4 6 7 8 8 7 5 5 6 7 7 7 7 7 6 6 5 4 1 3 4 3 3 2 2 4 6
Wind_Direction
103 84 81 89 129 129 156 162 156 147 147 137 149 153 172 171 177 176 150 162 185 196 200 203 202 200 198 197 201 206 210 208 206 208 210 210 210 211 213 215 215 216 216
92 98 97 82 76 136 101 138 131 140 141 120 150 136 182 175 155 194 199 172 180 190 198 202 203 201 197 198 205 208 208 208 210 210 212 212 212 214 217 217 217 217 217
139 161 84 143 65 72 96 124 116 144 154 148 144 149 194 222 212 198 213 208 186 184 191 195 199 197 198 202 209 210 210 210 210 213 216 216 214 214 214 218 216 214 213
185 214 113 78 28 74 134 130 174 158 145 170 143 191 215 211 213 207 210 202 202 188 180 180 192 196 204 207 210 210 211 213 216 218 220 220 219 219 219 221 221 217 215
214 201 103 18 267 261 261 237 120 203 205 131 189 191 239 228 214 216 216 209 196 201 181 158 176 193 200 205 209 213 217 220 222 223 222 222 220 220 222 223 221 219 218
194 224 184 203 260 247 246 337 143 162 254 238 278 306 260 248 243 224 229 205 185 199 202 182 186 188 194 203 211 218 224 226 226 226 225 225 224 222 222 222 220 222 221
194 228 264 172 245 204 223 212 207 184 210 198 232 218 221 212 207 213 214 212 183 191 197 196 222 216 187 193 206 216 224 228 225 224 223 226 228 228 225 223 222 224 226
211 198 209 214 208 193 191 202 203 233 224 218 272 266 238 197 195 183 191 196 207 201 202 199 198 212 233 201 169 197 216 223 222 223 224 228 228 228 228 226 225 226 226
195 212 189 231 215 225 178 226 224 218 236 236 264 284 280 285 269 177 183 180 187 208 219 190 203 202 221 232 194 180 203 225 229 228 227 226 224 222 225 225 225 224 224
194 199 206 212 237 238 184 229 209 243 241 237 232 267 293 315 274 228 203 182 187 212 244 241 210 197 223 237 233 266 201 229 242 241 236 235 234 231 227 223 225 228 227
196 208 210 217 223 235 222 241 239 245 236 250 254 253 260 249 259 266 254 247 235 222 219 227 225 216 237 270 275 350 227 254 263 265 250 246 244 241 231 228 229 233 234
204 206 206 210 218 218 208 218 233 226 245 256 260 260 259 267 269 268 264 257 258 239 214 221 241 229 219 192 62 66 62 30 300 285 275 255 246 244 241 236 238 238 239
209 195 207 207 210 201 211 214 206 242 225 226 236 253 265 273 277 269 273 275 277 261 222 218 225 216 231 191 115 104 115 114 314 319 312 291 244 235 238 241 245 242 240
229 196 201 201 204 213 212 205 212 217 207 222 235 264 260 268 262 262 274 273 269 259 245 239 223 215 226 217 89 214 151 116 157 359 326 311 248 233 225 234 244 247 243
206 195 213 207 200 209 228 234 225 244 240 239 221 221 253 258 258 262 265 267 269 273 265 220 237 211 228 176 119 248 226 102 151 137 34 335 210 206 227 246 253 255 248
209 202 213 210 205 216 224 239 226 226 241 246 254 279 273 264 258 252 259 268 268 274 276 264 242 216 287 245 160 276 246 146 164 177 252 256 196 144 86 34 282 254 248
199 194 200 211 213 221 226 228 241 230 237 238 242 232 252 279 269 261 251 258 267 270 266 267 245 158 244 284 250 263 247 245 177 156 179 220 197 182 184 197 240 268 251
206 203 203 207 216 219 226 228 241 239 240 241 247 247 247 235 237 259 260 262 268 264 263 271 263 243 252 260 261 264 249 249 243 149 161 190 193 194 195 199 222 253 264
211 219 215 216 223 225 227 234 237 235 237 239 241 244 247 243 236 236 247 259 262 255 259 261 265 272 260 262 253 251 256 267 259 171 177 184 186 194 201 203 213 230 233
214 223 230 226 225 227 229 232 231 229 234 232 233 237 238 238 239 237 233 247 270 271 253 258 267 255 252 263 261 260 251 246 268 248 203 203 188 191 189 188 198 210 211
221 221 230 234 231 228 230 225 226 223 226 232 229 228 227 225 296 270 266 251 249 261 258 257 262 261 260 277 274 274 274 264 242 300 286 251 205 208 191 181 185 204 217
224 224 231 238 243 240 158 201 239 229 226 229 232 234 225 207 206 208 263 283 289 263 276 279 273 283 284 273 285 283 287 285 279 294 282 273 263 248 223 188 146 172 207
221 228 239 241 249 238 175 200 228 233 235 235 233 236 243 220 202 220 209 209 225 246 267 273 281 285 283 284 282 275 280 283 288 303 283 275 260 270 251 125 135 162 183
225 229 235 237 242 232 187 205 220 226 235 237 237 234 240 245 236 233 232 227 228 225 231 246 265 271 281 291 274 267 275 265 258 250 268 275 268 264 271 160 148 160 173
233 238 236 237 238 233 203 212 227 231 232 235 236 236 237 239 216 224 237 239 240 239 213 214 243 253 272 271 278 272 271 272 269 248 239 269 271 264 252 220 163 171 179
236 243 242 238 237 237 209 208 223 234 236 236 233 233 226 229 204 208 236 241 243 246 249 234 231 233 237 234 234 254 267 269 276 267 229 264 269 262 253 230 204 190 193
Height
1533 1532 1532 1532 1532 1533 1533 1533 1534 1535 1536 1536 1537 1537 1538 1539 1539 1540 1540 1540 1540 1540 1541 1541 1541 1542 1543 1544 1545 1546 1547 1548 1549 1550 1551 1552 1553 1554 1555 1556 1557 1558 1559
1533 1533 1533 1533 1533 1533 1533 1534 1534 1535 1535 1536 1536 1537 1537 1538 1538 1538 1539 1539 1539 1539 1540 1540 1540 1541 1541 1542 1543 1544 1545 1547 1548 1549 1549 1550 1551 1552 1553 1554 1555 1556 1557
1534 1534 1534 1533 1533 1533 1533 1533 1534 1535 1535 1536 1536 1537 1537 1537 1537 1537 1538 1538 1539 1538 1538 1539 1539 1539 1540 1541 1542 1543 1544 1545 1546 1546 1547 1548 1549 1550 1551 1552 1553 1553 1555
1534 1534 1534 1534 1533 1533 1533 1533 1534 1535 1535 1536 1536 1536 1536 1536 1536 1537 1537 1537 1538 1538 1538 1538 1538 1539 1539 1540 1540 1541 1542 1543 1544 1544 1545 1546 1546 1547 1548 1549 1550 1551 1552
1534 1534 1534 1534 1533 1533 1533 1534 1534 1534 1535 1535 1536 1536 1536 1536 1536 1536 1536 1536 1537 1537 1538 1537 1537 1537 1538 1539 1539 1540 1540 1541 1542 1542 1543 1543 1544 1545 1545 1546 1547 1548 1549
1534 1534 1534 1533 1533 1533 1533 1532 1532 1533 1534 1534 1535 1535 1535 1535 1535 1535 1535 1535 1536 1536 1537 1537 1537 1537 1537 1537 1538 1538 1539 1539 1540 1540 1540 1541 1541 1542 1542 1543 1544 1544 1545
1534 1533 1534 1533 1532 1532 1532 1532 1533 1533 1533 1534 1534 1534 1535 1535 1535 1535 1535 1535 1535 1535 1535 1535 1536 1536 1536 1535 1536 1536 1537 1537 1537 1538 1538 1538 1539 1539 1540 1540 1541 1541 1542
1533 1533 1533 1533 1532 1532 1531 1532 1532 1533 1533 1534 1534 1534 1534 1535 1534 1534 1534 1534 1534 1534 1535 1535 1535 1534 1535 1535 1534 1534 1535 1535 1535 1535 1536 1536 1536 1536 1537 1537 1538 1538 1539
1532 1532 1532 1532 1532 1532 1532 1532 1532 1532 1533 1533 1533 1534 1534 1533 1534 1534 1533 1533 1533 1533 1534 1534 1534 1534 1534 1534 1533 1533 1533 1533 1533 1533 1533 1533 1533 1533 1533 1534 1534 1535 1536
1531 1531 1531 1531 1531 1531 1531 1531 1532 1532 1532 1532 1532 1532 1533 1533 1533 1533 1533 1533 1532 1532 1533 1533 1533 1532 1532 1532 1531 1531 1531 1530 1530 1530 1531 1531 1530 1530 1530 1530 1531 1532 1532
1530 1530 1530 1530 1530 1531 1530 1530 1530 1530 1531 1532 1532 1532 1532 1532 1532 1532 1531 1532 1532 1532 1532 1531 1531 1531 1531 1530 1530 1529 1529 1528 1528 1528 1527 1527 1527 1527 1526 1527 1527 1528 1529
1529 1529 1529 1529 1529 1529 1529 1529 1529 1529 1529 1530 1530 1531 1531 1531 1531 1531 1530 1530 1530 1530 1530 1530 1530 1530 1529 1528 1528 1527 1527 1526 1526 1525 1524 1524 1524 1523 1523 1523 1524 1525 1525
1529 1527 1528 1527 1528 1528 1528 1528 1528 1528 1528 1528 1528 1529 1529 1529 1529 1529 1529 1529 1529 1529 1528 1528 1528 1528 1527 1527 1526 1525 1524 1524 1523 1522 1522 1521 1521 1520 1520 1520 1521 1521 1521
1527 1526 1526 1526 1526 1526 1527 1527 1527 1527 1527 1527 1527 1527 1527 1527 1527 1527 1528 1527 1527 1527 1527 1527 1526 1526 1525 1525 1524 1523 1522 1522 1521 1520 1519 1518 1518 1518 1518 1518 1518 1518 1518
1525 1524 1525 1525 1525 1525 1525 1525 1526 1525 1525 1526 1526 1525 1525 1525 1525 1525 1526 1526 1526 1525 1525 1524 1525 1524 1523 1522 1521 1521 1521 1519 1519 1518 1517 1516 1515 1515 1515 1515 1515 1515 1514
1522 1522 1523 1523 1523 1524 1524 1524 1525 1524 1524 1524 1523 1523 1523 1524 1524 1524 1524 1524 1524 1524 1523 1523 1523 1522 1521 1521 1520 1519 1518 1517 1516 1515 1515 1514 1513 1513 1512 1512 1512 1512 1511
1520 1520 1520 1521 1521 1522 1522 1522 1522 1522 1522 1522 1522 1521 1521 1521 1522 1522 1522 1522 1522 1522 1522 1521 1521 1520 1518 1518 1518 1517 1517 1516 1515 1513 1512 1511 1511 1510 1510 1510 1509 1509 1508
1518 1518 1518 1518 1519 1519 1519 1519 1520 1520 1520 1520 1520 1520 1520 1520 1519 1520 1520 1520 1520 1519 1520 1519 1519 1518 1516 1516 1515 1515 1515 1515 1513 1512 1510 1509 1509 1508 1508 1508 1507 1507 1506
1515 1516 1516 1516 1516 1516 1517 1517 1517 1518 1518 1518 1518 1518 1518 1518 1517 1518 1517 1518 1518 1518 1517 1517 1517 1516 1515 1514 1514 1514 1513 1512 1512 1510 1509 1507 1507 1506 1506 1505 1505 1504 1504
1513 1513 1513 1513 1513 1514 1514 1514 1515 1515 1515 1515 1515 1515 1515 1516 1515 1515 1516 1515 1516 1516 1515 1515 1515 1514 1513 1512 1512 1512 1512 1511 1510 1510 1508 1506 1505 1504 1504 1503 1503 1502 1502
1511 1510 1510 1510 1511 1511 1511 1511 1511 1512 1512 1512 1513 1513 1513 1513 1513 1513 1514 1514 1514 1514 1514 1513 1513 1512 1512 1511 1511 1510 1510 1509 1508 1508 1506 1505 1504 1503 1502 1501 1501 1500 1500
1508 1508 1508 1508 1508 1509 1508 1508 1509 1509 1509 1510 1510 1510 1511 1510 1510 1510 1511 1511 1511 1512 1512 1511 1511 1510 1509 1509 1509 1508 1508 1507 1507 1506 1505 1504 1504 1503 1502 1501 1499 1498 1498
1505 1505 1505 1505 1505 1505 1505 1505 1506 1506 1507 1507 1507 1507 1508 1509 1508 1508 1508 1508 1508 1508 1509 1509 1509 1508 1507 1507 1506 1506 1505 1505 1504 1503 1503 1503 1502 1501 1500 1499 1497 1496 1496
1502 1502 1502 1502 1502 1502 1502 1502 1503 1503 1503 1503 1504 1504 1504 1505 1506 1505 1506 1506 1506 1506 1505 1505 1505 1505 1505 1504 1503 1503 1503 1502 1501 1501 1500 1500 1500 1499 1498 1497 1495 1494 1494
1499 1499 1499 1499 1499 1499 1499 1499 1499 1500 1500 1500 1500 1500 1501 1502 1502 1502 1502 1503 1503 1503 1503 1502 1502 1501 1501 1501 1501 1501 1500 1500 1499 1498 1497 1497 1497 1497 1496 1495 1493 1492 1492
1496 1495 1495 1495 1495 1495 1495 1495 1495 1497 1497 1497 1497 1497 1497 1498 1498 1498 1499 1499 1499 1499 1500 1499 1499 1498 1498 1497 1497 1497 1497 1497 1497 1496 1495 1494 1494 1494 1494 1493 1492 1491 1491